Location: Newark
(55.7083°N, 13.1992°E)
Time: 13:05:53
(UTC+00:00)

A-11 Canister half - All Passes

Search period start: 28 February 2020 00:00
Search period end: 09 March 2020 00:00
Orbit: 1517 x 1683 km, 47.2° (Epoch: 27 February)

Date Brightness Start Highest point End Pass type
(mag) Time Alt. Az. Time Alt. Az. Time Alt. Az.
28 Feb - 11:36:06 10° SSE 11:40:54 15° SE 11:45:39 10° E daylight
28 Feb - 13:34:45 10° SSW 13:43:32 36° SSE 13:52:07 10° E daylight
28 Feb - 15:37:38 10° WSW 15:47:12 52° S 15:56:27 10° ESE daylight
28 Feb - 17:41:50 10° W 17:51:05 47° SSW 18:00:02 10° SE visible
28 Feb - 19:46:49 10° W 19:54:15 26° SW 20:01:30 10° S visible
29 Feb - 11:13:50 10° SSE 11:18:08 14° SE 11:22:24 10° E daylight
29 Feb - 13:11:59 10° SSW 13:20:42 35° SSE 13:29:12 10° E daylight
29 Feb - 15:14:45 10° WSW 15:24:18 52° S 15:33:35 10° E daylight
29 Feb - 17:18:54 10° W 17:28:13 48° SSW 17:37:14 10° SE visible
29 Feb - 19:23:49 10° W 19:31:27 27° SW 19:38:53 10° SSE visible
01 Mar - 10:51:40 10° SSE 10:55:22 13° SE 10:59:02 10° ESE daylight
01 Mar - 12:49:14 10° SSW 12:57:51 33° SSE 13:06:17 10° E daylight
01 Mar - 14:51:52 10° WSW 15:01:26 51° S 15:10:44 10° E daylight
01 Mar - 16:55:59 10° W 17:05:21 48° SSW 17:14:25 10° SE daylight
01 Mar - 19:00:50 10° W 19:08:38 28° SW 19:16:16 10° SSE visible
02 Mar - 10:29:41 10° SE 10:32:36 12° SE 10:35:30 10° ESE daylight
02 Mar - 12:26:29 10° SSW 12:35:00 32° SE 12:43:22 10° E daylight
02 Mar - 14:28:59 10° WSW 14:38:33 51° S 14:47:51 10° E daylight
02 Mar - 16:33:03 10° W 16:42:29 49° SSW 16:51:36 10° ESE daylight
02 Mar - 18:37:50 10° W 18:45:50 29° SW 18:53:37 10° SSE visible
03 Mar - 10:08:04 10° SE 10:09:50 11° ESE 10:11:36 10° ESE daylight
03 Mar - 12:03:46 10° SSW 12:12:10 31° SE 12:20:26 10° E daylight
03 Mar - 14:06:07 10° WSW 14:15:40 50° SSE 14:24:58 10° E daylight
03 Mar - 16:10:08 10° W 16:19:37 50° SSW 16:28:47 10° ESE daylight
03 Mar - 18:14:52 10° W 18:23:01 31° SW 18:30:57 10° SSE visible
04 Mar - 11:41:03 10° SSW 11:49:20 30° SE 11:57:29 10° E daylight
04 Mar - 13:43:14 10° WSW 13:52:47 49° SSE 14:02:06 10° E daylight
04 Mar - 15:47:12 10° W 15:56:44 51° S 16:05:58 10° ESE daylight
04 Mar - 17:51:53 10° W 18:00:12 32° SW 18:08:17 10° SSE visible
04 Mar - 20:00:12 10° WSW 20:02:28 11° WSW 20:04:42 10° SW visible
05 Mar - 11:18:21 10° SSW 11:26:30 29° SE 11:34:33 10° E daylight
05 Mar - 13:20:22 10° SW 13:29:54 49° SSE 13:39:13 10° E daylight
05 Mar - 15:24:17 10° W 15:33:51 51° S 15:43:08 10° ESE daylight
05 Mar - 17:28:55 10° W 17:37:23 33° SSW 17:45:35 10° SSE visible
05 Mar - 19:36:29 10° WSW 19:39:43 12° SW 19:42:56 10° SW visible
06 Mar - 10:55:40 10° SSW 11:03:40 28° SE 11:11:34 10° E daylight
06 Mar - 12:57:30 10° SW 13:07:01 48° SSE 13:16:20 10° E daylight
06 Mar - 15:01:22 10° W 15:10:58 52° S 15:20:18 10° ESE daylight
06 Mar - 17:05:57 10° W 17:14:33 35° SSW 17:22:54 10° SSE daylight
06 Mar - 19:13:00 10° W 19:16:58 13° SW 19:20:53 10° SSW visible
07 Mar - 10:33:00 10° S 10:40:50 26° SE 10:48:37 10° E daylight
07 Mar - 12:34:39 10° SW 12:44:08 47° SSE 12:53:26 10° E daylight
07 Mar - 14:38:27 10° W 14:48:05 52° S 14:57:27 10° ESE daylight
07 Mar - 16:43:00 10° W 16:51:43 36° SSW 17:00:10 10° SSE daylight
07 Mar - 18:49:40 10° W 18:54:12 14° SW 18:58:42 10° SSW visible
08 Mar - 10:10:21 10° S 10:18:01 25° SE 10:25:38 10° E daylight
08 Mar - 12:11:49 10° SW 12:21:15 46° SSE 12:30:33 10° E daylight
08 Mar - 14:15:32 10° WSW 14:25:12 53° S 14:34:36 10° ESE daylight
08 Mar - 16:20:03 10° W 16:28:52 37° SSW 16:37:26 10° SSE daylight
08 Mar - 18:26:24 10° W 18:31:27 15° SW 18:36:25 10° SSW visible
